Miscellaneous Local Product
Issued by NWS Hastings, NE

Home | Current Version | Previous Version | Graphics & Text | Print | Product List | Glossary On
Versions: 1 2 3 4 5 6 7 8 9 10 11 12 13 14 15 16 17 18 19 20 21 22 23 24 25 26 27 28 29 30 31 32 33 34 35 36 37 38 39 40 41 42 43 44 45 46 47 48 49 50
016
AXUS43 KGID 250202
MISGRI

GID CWA HOURLY WEATHER ROUNDUP
NATIONAL WEATHER SERVICE HASTINGS NE
900 PM CDT SUN JUL 24 2016

NOTE: "FAIR" INDICATES FEW OR NO CLOUDS BELOW 12,000 FEET WITH NO
SIGNIFICANT WEATHER AND/OR OBSTRUCTIONS TO VISIBILITY.

...SOUTH CENTRAL NEBRASKA...

CITY           SKY/WX    TMP DP  RH WIND       PRES   REMARKS
GRAND ISLAND   CLEAR     74  63  68 NE5       30.08R
HASTINGS       CLEAR     76  64  66 NE3       30.08R
KEARNEY        CLEAR     73  64  73 E6        30.10R
ORD            CLEAR     75  64  68 E3        30.09R
YORK           CLEAR     73  63  68 NE7       30.05S
AURORA         CLEAR     73  69  85 N5        30.06S
LEXINGTON      CLOUDY    74  64  72 NE5       30.12R
HOLDREGE       CLEAR     73  64  72 E3        30.10R
HEBRON         CLEAR     75  64  67 E3        30.03S

...NEBRASKA PANHANDLE...

CITY           SKY/WX    TMP DP  RH WIND       PRES   REMARKS
CHADRON        PTCLDY    82  50  32 SE10      30.08R
ALLIANCE       CLOUDY    76  52  43 SE14      30.13R
SCOTTSBLUFF    CLOUDY    76  55  48 E13       30.12R
SIDNEY         CLOUDY    69  56  62 S25       30.16R

...WESTERN AND NORTH CENTRAL NEBRASKA...

CITY           SKY/WX    TMP DP  RH WIND       PRES   REMARKS
VALENTINE      CLEAR     80  50  34 SE6       30.10R
AINSWORTH      CLOUDY    75  65  72 NE5       30.12R
ONEILL         CLOUDY    76  62  61 CALM      30.10R
BROKEN BOW     PTCLDY    72  64  76 SE3       30.12R
IMPERIAL       LGT RAIN  74  62  66 E6        30.18R
NORTH PLATTE   CLOUDY    73  65  75 SE6       30.12R
MCCOOK         MOCLDY    76  59  55 NE10      30.11R

...EASTERN NEBRASKA...

CITY           SKY/WX    TMP DP  RH WIND       PRES   REMARKS
NORFOLK        CLOUDY    74  60  61 N7        30.07R
SO SIOUX CITY  CLOUDY    75  63  66 NW3       30.04R
TEKAMAH        CLEAR     75  68  78 N3        30.02S
COLUMBUS       CLEAR     72  61  68 CALM      30.06R
ALBION         CLOUDY    73  64  74 NE5       30.09R
OMAHA EPPLEY   PTCLDY    76  68  76 N5        30.00S
OFFUTT AFB     CLEAR     75  66  72 N7        29.99F
MILLARD        CLEAR     79  65  60 CALM      30.01S
LINCOLN        CLEAR     75  67  76 N3        30.02R
NEBRASKA CITY  CLOUDY    74  66  75 NW3       30.01R
BEATRICE       CLEAR     76  65  68 CALM      30.02R
FALLS CITY     CLOUDY    76  69  79 E5        29.97F

...NORTHERN KANSAS...

CITY           SKY/WX    TMP DP  RH WIND       PRES   REMARKS
GOODLAND       CLOUDY    80  59  48 E13       30.10R
HILL CITY      CLEAR     80  64  58 E8        30.05R
NORTON         CLEAR     75  46  35 NE6       30.07R
SMITH CENTER   CLEAR     73  61  64 NE8       30.05R
BELOIT         CLEAR     77  63  61 NE8       30.01R
HAYS           CLEAR     81  61  50 NE16      30.01R
RUSSELL        CLEAR     79  64  60 NE10      29.99R
CONCORDIA      CLEAR     75  64  68 NE6       30.01R
SALINA         CLEAR     85  71  63 NE12      29.97R HX  90
TOPEKA         CLEAR     80  68  66 NE7       29.96S



USA.gov is the U.S. government's official web portal to all federal, state and local government web resources and services.